map of BJV home
Great Circle Mapper logo
BJV - Airport
Location
City:  Bodrum, Turkey
Name:Milas
ICAO / IATA:LTFE / BJV

Details
Type:Airport (Aerodrome, Airfield)
Use:Public/Civil, International (customs port of entry)
Latitude:3715'02"N (37.250611)
Longitude:2739'52"E (27.664311)
Datum:WGS 1984
Elevation:21 ft (6 m)
Runways:1
Longest:9842 × 148 ft (3000 × 45 m), paved

Time
Time Zone:UTC+2 (DST+3)
Local Time:

Weather
METAR:LTFE 180450Z 17005KT 8000 NSC 19/14 Q1011 NOSIG RMK RWY10 VRB02KT
TAF:LTFE 171040Z 1712/1812 26014KT 9999 SCT035
TEMPO 1712/1716 -TSRA FEW020CB BKN030
BECMG 1716/1718 VRB02KT
BECMG 1718/1721 CAVOK PROB40
TEMPO 1802/1806 4000 BR
BECMG 1807/1809 26012KT SCT035

Related Locations
Nearby:
Farthest:NTAV: 11469 mi / 18458 km
Raivavae, Tubuai Islands, Austral Islands, PF

Find:

   beyond  
but within

Other Information
Maps:
NOTAMs:
Links:
Sources:

  
flag of Turkey   

Sectional Chart

Flight Planning
at skyvector.com

Satellite Image

Google Maps Satellite View

 

Copyright © 2004-2014 Karl L. Swartz. All rights reserved.
The Great Circle Mapper name and logo are trademarks of the Great Circle Mapper.
All other trademarks mentioned herein belong to their respective owners.
Please see credits for attibutions and further copyright information.

  Follow gcmap on Facebook Follow gcmap on Twitter

hCard Microformat

Geo Microformat